Overview Statistics Trail Chart Weather Telemetry Raw packets
 

This is the latest recevied weather packets stored in our database for station/object WMKD. If no packets are shown the sender has not sent any weather packets the latest 10 day(s).

<< 5 6 7 8 9 10 11 >>
Time Temp. Humidity Pressure Rain* Wind** Luminosity Snow
1777540776 32.78° C 59% 1006 hPa - - - -
1777540183 31.67° C 66% 1007 hPa - - - -
1777536580 31.67° C 66% 1007 hPa - - - -
1777532981 33.89° C 59% 1007 hPa - - - -
1777529380 32.78° C 62% 1008 hPa - - - -
1777525783 32.78° C 62% 1009 hPa - - - -
1777522180 31.67° C 66% 1010 hPa - - - -
1777518580 30.56° C 70% 1010 hPa - - - -
1777514980 30° C 74% 1010 hPa - - - -
1777511380 27.78° C 83% 1009 hPa - - - -
1777507786 25° C 94% 1009 hPa - - - -
1777504179 25° C 94% 1009 hPa - - - -
1777500579 25° C 94% 1008 hPa - - - -
1777496983 25° C 94% 1008 hPa - - - -
1777493383 25° C 94% 1008 hPa - - - -
1777489779 25° C 94% 1009 hPa - - - -
1777486179 25° C 94% 1009 hPa - - - -
1777482579 25° C 94% 1010 hPa - - - -
1777478979 25.56° C 88% 1010 hPa - - - -
1777475383 25.56° C 88% 1010 hPa - - - -
1777471778 26.67° C 83% 1009 hPa - - - -
1777468179 26.67° C 83% 1009 hPa - - - -
1777464579 27.78° C 83% 1007 hPa - - - -
1777460978 30° C 74% 1007 hPa - - - -
1777457383 30.56° C 70% 1006 hPa - - - -

* Rain since midnight (hover to see other rain measurements)
** Current wind speed in m/s (hover to see current wind gust speed)